MAS501 WIMM-WMKK

Flight info

Callsign MAS501
Flight time N/A
Altitude 25000
Route PUGER PUGER1G
Aircraft A332/H-SDE3GHIJ2J3J5M1RVWXY/LB2D1

Departure

Time 2026-04-27 07:43
Airport Kualanamu International Airport (WIMM)

Arrival

Time N/A
Airport Kuala Lumpur International Airport (WMKK)
Time Latitude Longitude Altitude Speed Heading
2026-04-27 07:28 3.63630 98.88104 44 ft 0 kts 226°
2026-04-27 07:30 3.63633 98.88106 44 ft 2 kts 226°
2026-04-27 07:31 3.63644 98.88118 41 ft 2 kts 229°
2026-04-27 07:31 3.63652 98.88131 42 ft 2 kts 251°
2026-04-27 07:31 3.63656 98.88147 40 ft 2 kts 259°
2026-04-27 07:31 3.63659 98.88163 42 ft 2 kts 263°
2026-04-27 07:32 3.63659 98.88179 43 ft 2 kts 286°
2026-04-27 07:32 3.63653 98.88194 41 ft 2 kts 308°
2026-04-27 07:32 3.63650 98.88197 40 ft 0 kts 309°
2026-04-27 07:35 3.63659 98.88186 42 ft 5 kts 309°
2026-04-27 07:36 3.63698 98.88142 44 ft 11 kts 314°
2026-04-27 07:36 3.63766 98.88068 44 ft 14 kts 305°
2026-04-27 07:36 3.63840 98.87997 44 ft 17 kts 321°
2026-04-27 07:36 3.63917 98.87964 44 ft 6 kts 16°
2026-04-27 07:37 3.63954 98.87993 44 ft 9 kts 44°
2026-04-27 07:37 3.64017 98.88056 44 ft 18 kts 46°
2026-04-27 07:37 3.64132 98.88169 44 ft 27 kts 43°
2026-04-27 07:37 3.64235 98.88171 44 ft 14 kts 320°
2026-04-27 07:38 3.64336 98.88069 44 ft 25 kts 307°
2026-04-27 07:38 3.64322 98.87972 43 ft 16 kts 225°
2026-04-27 07:38 3.64205 98.87856 43 ft 31 kts 225°
2026-04-27 07:38 3.64025 98.87674 43 ft 42 kts 225°
2026-04-27 07:39 3.63794 98.87444 44 ft 51 kts 225°
2026-04-27 07:39 3.63612 98.87202 43 ft 25 kts 283°
2026-04-27 07:39 3.63601 98.87121 43 ft 10 kts 222°
2026-04-27 07:39 3.63517 98.87044 43 ft 23 kts 226°
2026-04-27 07:40 3.63385 98.86916 43 ft 31 kts 223°
2026-04-27 07:40 3.63215 98.86745 42 ft 38 kts 227°
2026-04-27 07:40 3.63012 98.86546 43 ft 43 kts 226°
2026-04-27 07:40 3.62789 98.86321 43 ft 48 kts 224°
2026-04-27 07:41 3.62544 98.86075 43 ft 44 kts 229°
2026-04-27 07:41 3.62551 98.85918 40 ft 26 kts 328°
2026-04-27 07:41 3.62684 98.85962 41 ft 17 kts 45°
2026-04-27 07:41 3.62691 98.85970 41 ft 0 kts 47°
2026-04-27 07:42 3.62749 98.86031 41 ft 46 kts 46°
2026-04-27 07:42 3.63194 98.86471 40 ft 131 kts 45°
2026-04-27 07:42 3.64014 98.87278 210 ft 191 kts 45°
2026-04-27 07:42 3.65099 98.88325 585 ft 242 kts 45°
2026-04-27 07:43 3.66287 98.89739 1113 ft 290 kts 63°
2026-04-27 07:43 3.66701 98.91776 1888 ft 307 kts 95°
2026-04-27 07:43 3.66304 98.93828 3097 ft 292 kts 105°
2026-04-27 07:43 3.65851 98.95747 4471 ft 272 kts 103°
2026-04-27 07:44 3.65506 98.97565 5731 ft 263 kts 99°
2026-04-27 07:44 3.65244 98.99398 6589 ft 270 kts 96°
2026-04-27 07:44 3.65046 99.01292 7356 ft 277 kts 95°
2026-04-27 07:44 3.64888 99.03226 8266 ft 279 kts 94°
2026-04-27 07:45 3.64752 99.05178 9184 ft 283 kts 93°
2026-04-27 07:45 3.64625 99.07162 10059 ft 288 kts 93°
2026-04-27 07:45 3.64501 99.09196 10562 ft 307 kts 93°
2026-04-27 07:45 3.64370 99.11425 10783 ft 333 kts 93°
2026-04-27 07:46 3.64230 99.13827 10970 ft 356 kts 93°
2026-04-27 07:46 3.64083 99.16353 11451 ft 365 kts 93°
2026-04-27 07:46 3.63935 99.18897 12216 ft 366 kts 93°
2026-04-27 07:46 3.63787 99.21450 12959 ft 368 kts 93°
2026-04-27 07:47 3.63638 99.24025 13629 ft 373 kts 93°
2026-04-27 07:47 3.63538 99.25745 14016 ft 375 kts 93°
2026-04-27 07:47 3.63337 99.29214 14793 ft 379 kts 93°
2026-04-27 07:47 3.63184 99.31864 15398 ft 382 kts 93°
2026-04-27 07:48 3.63044 99.34540 15984 ft 385 kts 94°
2026-04-27 07:48 3.62574 99.37198 16552 ft 389 kts 102°
2026-04-27 07:48 3.61927 99.39834 17136 ft 392 kts 103°
2026-04-27 07:48 3.61251 99.42487 17698 ft 395 kts 103°
2026-04-27 07:49 3.60803 99.44263 18066 ft 397 kts 103°
2026-04-27 07:49 3.60132 99.46958 18551 ft 400 kts 103°
2026-04-27 07:49 3.59465 99.49669 19023 ft 402 kts 103°
2026-04-27 07:49 3.58798 99.52401 19477 ft 405 kts 103°
2026-04-27 07:50 3.58128 99.55154 19936 ft 408 kts 102°
2026-04-27 07:50 3.57458 99.57918 20370 ft 410 kts 102°
2026-04-27 07:50 3.56783 99.60706 20818 ft 413 kts 102°
2026-04-27 07:50 3.56104 99.63510 21266 ft 416 kts 102°
2026-04-27 07:51 3.55430 99.66296 21697 ft 418 kts 102°
2026-04-27 07:51 3.54743 99.69134 22129 ft 421 kts 102°
2026-04-27 07:51 3.54051 99.71993 22557 ft 423 kts 102°
2026-04-27 07:51 3.53354 99.74872 22979 ft 426 kts 102°
2026-04-27 07:52 3.52655 99.77760 23401 ft 429 kts 102°
2026-04-27 07:52 3.51949 99.80674 23742 ft 431 kts 102°
2026-04-27 07:52 3.51240 99.83604 24065 ft 434 kts 102°
2026-04-27 07:52 3.50525 99.86553 24393 ft 437 kts 102°
2026-04-27 07:53 3.49806 99.89522 24706 ft 438 kts 102°
2026-04-27 07:53 3.49084 99.92501 24808 ft 445 kts 102°
2026-04-27 07:53 3.48347 99.95543 24816 ft 454 kts 102°
2026-04-27 07:53 3.47598 99.98634 24820 ft 456 kts 102°
2026-04-27 07:54 3.46850 100.01721 24820 ft 457 kts 102°
2026-04-27 07:54 3.46100 100.04810 24820 ft 457 kts 102°
2026-04-27 07:54 3.45359 100.07868 24821 ft 457 kts 102°
2026-04-27 07:54 3.44607 100.10967 24821 ft 458 kts 102°
2026-04-27 07:55 3.43844 100.14062 24822 ft 458 kts 103°
2026-04-27 07:55 3.43058 100.17151 24823 ft 457 kts 103°
2026-04-27 07:55 3.42267 100.20238 24823 ft 457 kts 103°
2026-04-27 07:55 3.41472 100.23336 24823 ft 458 kts 103°
2026-04-27 07:56 3.40681 100.26419 24823 ft 458 kts 103°
2026-04-27 07:56 3.40020 100.29539 24823 ft 457 kts 97°
2026-04-27 07:56 3.39644 100.32654 24824 ft 457 kts 95°
2026-04-27 07:56 3.39349 100.35821 24823 ft 457 kts 94°
2026-04-27 07:57 3.39071 100.38990 24823 ft 457 kts 94°
2026-04-27 07:57 3.38793 100.42158 24823 ft 457 kts 94°
2026-04-27 07:57 3.38512 100.45330 24818 ft 457 kts 94°
2026-04-27 07:57 3.38230 100.48499 24818 ft 457 kts 94°
2026-04-27 07:58 3.37946 100.51666 24822 ft 457 kts 94°
2026-04-27 07:58 3.37661 100.54830 24821 ft 457 kts 94°
2026-04-27 07:58 3.37376 100.57999 24818 ft 456 kts 94°
2026-04-27 07:58 3.37094 100.61125 24820 ft 457 kts 94°
2026-04-27 07:59 3.36808 100.64298 24821 ft 457 kts 94°
2026-04-27 07:59 3.36236 100.70630 24821 ft 457 kts 94°
2026-04-27 07:59 3.35949 100.73801 24821 ft 457 kts 94°
2026-04-27 08:00 3.35663 100.76974 24819 ft 457 kts 94°
2026-04-27 08:00 3.35376 100.80143 24821 ft 457 kts 94°
2026-04-27 08:00 3.35089 100.83313 24821 ft 457 kts 94°
2026-04-27 08:00 3.34844 100.86027 24821 ft 457 kts 94°